ATLAS 5 CENTAUR R/B (45466 NORAD) Tracking and Keplerian Element Data

This shows tracking and keplerian element data for the satellite.

Feedback or suggestion? Click here.




ElementValue
Catalog45466
NameATLAS 5 CENTAUR R/B
Epoch Orbit47
Epoch Day114.43646219
Epoch Year2020
RAAN316.7994
Inclination13.3879
Eccentricity0.4146382
Argument of Perigee183.9301
Mean Anonmoly171.1914
Mean Motion1.7171699
Decay Rate-7.5E-07
L11 45466U 20022C 20114.43646219 -.00000075 00000-0 00000-0 0 9997
L22 45466 13.3879 316.7994 4146382 183.9301 171.1914 1.71716990 476

Live tracking and technical data element details for ATLAS 5 CENTAUR R/B (NORAD 45466). ATLAS 5 CENTAUR R/B can be tracked NOW for your location showing map with azimuth and elevation plus other details from your city location.

Track the satellite on the map from your city or location and see movement details for azimuth, elevation, latitude, longitude, range, height, and movement on the map or in text.







IsCatalogInMostPopularTable: catalog: 45466, numindb: 15
Update: records affected: 1



GetName: 45466 ATLAS 5 CENTAUR R/B

Hit Count: updated at: Mon, 25 May 2020 06:42:34 GMT